owner,sensor,date,latitude,longitude,vertical_datum,sea_water_practical_salinity,qcFlag 
DISL,ioos:station:DISL:CATA:1,2009-02-01T00:00:00Z,30.3085,-88.1395,2.293,17.48,1111122 
DISL,ioos:station:DISL:CATA:1,2009-02-01T00:30:00Z,30.3085,-88.1395,2.277,17.36,1111122 
DISL,ioos:station:DISL:CATA:1,2009-02-01T01:00:00Z,30.3085,-88.1395,2.258,17.63,1111122 
DISL,ioos:station:DISL:CATA:1,2009-02-01T01:30:00Z,30.3085,-88.1395,2.249,16.76,1111122 
DISL,ioos:station:DISL:CATA:1,2009-02-01T02:00:00Z,30.3085,-88.1395,2.239,15.93,1111122 
DISL,ioos:station:DISL:CATA:1,2009-02-01T02:30:00Z,30.3085,-88.1395,2.233,15.58,1111122 
DISL,ioos:station:DISL:CATA:1,2009-02-01T03:00:00Z,30.3085,-88.1395,2.23,15.34,1111122 
DISL,ioos:station:DISL:CATA:1,2009-02-01T03:30:00Z,30.3085,-88.1395,2.231,15.21,1111122 
DISL,ioos:station:DISL:CATA:1,2009-02-01T04:00:00Z,30.3085,-88.1395,2.22,15.18,1111122 
DISL,ioos:station:DISL:CATA:1,2009-02-01T04:30:00Z,30.3085,-88.1395,2.213,15.02,1111122 
DISL,ioos:station:DISL:CATA:1,2009-02-01T05:00:00Z,30.3085,-88.1395,2.204,14.97,1111122 
DISL,ioos:station:DISL:CATA:1,2009-02-01T05:30:00Z,30.3085,-88.1395,2.192,15.19,1111122 
DISL,ioos:station:DISL:CATA:1,2009-02-01T06:00:00Z,30.3085,-88.1395,2.181,15.05,1111122 
DISL,ioos:station:DISL:CATA:1,2009-02-01T06:30:00Z,30.3085,-88.1395,2.164,14.71,1111122 
DISL,ioos:station:DISL:CATA:1,2009-02-01T07:00:00Z,30.3085,-88.1395,2.164,14.49,1111122 
DISL,ioos:station:DISL:CATA:1,2009-02-01T07:30:00Z,30.3085,-88.1395,2.162,14.35,1111122 
DISL,ioos:station:DISL:CATA:1,2009-02-01T08:00:00Z,30.3085,-88.1395,2.161,14.08,1111122 
DISL,ioos:station:DISL:CATA:1,2009-02-01T08:30:00Z,30.3085,-88.1395,2.169,14.4,1111122 
DISL,ioos:station:DISL:CATA:1,2009-02-01T09:00:00Z,30.3085,-88.1395,2.184,14.76,1111122 
DISL,ioos:station:DISL:CATA:1,2009-02-01T09:30:00Z,30.3085,-88.1395,2.192,14.54,1111122 
DISL,ioos:station:DISL:CATA:1,2009-02-01T10:00:00Z,30.3085,-88.1395,2.201,14.73,1111122 
DISL,ioos:station:DISL:CATA:1,2009-02-01T10:30:00Z,30.3085,-88.1395,2.202,15.22,1111122 
DISL,ioos:station:DISL:CATA:1,2009-02-01T11:00:00Z,30.3085,-88.1395,2.199,15.2,1111122 
DISL,ioos:station:DISL:CATA:1,2009-02-01T11:30:00Z,30.3085,-88.1395,2.198,15.31,1111122 
DISL,ioos:station:DISL:CATA:1,2009-02-01T12:00:00Z,30.3085,-88.1395,2.205,16.19,1111122 
DISL,ioos:station:DISL:CATA:1,2009-02-01T12:30:00Z,30.3085,-88.1395,2.214,16.38,1111122 
DISL,ioos:station:DISL:CATA:1,2009-02-01T13:00:00Z,30.3085,-88.1395,2.224,16.5,1111122 
DISL,ioos:station:DISL:CATA:1,2009-02-01T13:30:00Z,30.3085,-88.1395,2.241,16.38,1111122 
DISL,ioos:station:DISL:CATA:1,2009-02-01T14:00:00Z,30.3085,-88.1395,2.257,16.32,1111122 
DISL,ioos:station:DISL:CATA:1,2009-02-01T14:30:00Z,30.3085,-88.1395,2.285,15.97,1111122 
DISL,ioos:station:DISL:CATA:1,2009-02-01T15:00:00Z,30.3085,-88.1395,2.316,15.83,1111122 
DISL,ioos:station:DISL:CATA:1,2009-02-01T15:30:00Z,30.3085,-88.1395,2.341,15.55,1111122 
DISL,ioos:station:DISL:CATA:1,2009-02-01T16:00:00Z,30.3085,-88.1395,2.365,15.3,1111122 
DISL,ioos:station:DISL:CATA:1,2009-02-01T16:30:00Z,30.3085,-88.1395,2.381,15.48,1111122 
DISL,ioos:station:DISL:CATA:1,2009-02-01T17:00:00Z,30.3085,-88.1395,2.39,15.43,1111122 
DISL,ioos:station:DISL:CATA:1,2009-02-01T17:30:00Z,30.3085,-88.1395,2.408,16.11,1111122 
DISL,ioos:station:DISL:CATA:1,2009-02-01T18:00:00Z,30.3085,-88.1395,2.42,16.39,1111122 
DISL,ioos:station:DISL:CATA:1,2009-02-01T18:30:00Z,30.3085,-88.1395,2.432,16.88,1111122 
DISL,ioos:station:DISL:CATA:1,2009-02-01T19:00:00Z,30.3085,-88.1395,2.436,17.41,1111122 
DISL,ioos:station:DISL:CATA:1,2009-02-01T19:30:00Z,30.3085,-88.1395,2.456,17.95,1111122 
DISL,ioos:station:DISL:CATA:1,2009-02-01T20:00:00Z,30.3085,-88.1395,2.458,18.27,1111122 
DISL,ioos:station:DISL:CATA:1,2009-02-01T20:30:00Z,30.3085,-88.1395,2.474,18.25,1111122 
DISL,ioos:station:DISL:CATA:1,2009-02-01T21:00:00Z,30.3085,-88.1395,2.484,18.59,1111122 
DISL,ioos:station:DISL:CATA:1,2009-02-01T21:30:00Z,30.3085,-88.1395,2.494,18.82,1111122 
DISL,ioos:station:DISL:CATA:1,2009-02-01T22:00:00Z,30.3085,-88.1395,2.502,19.21,1111122 
DISL,ioos:station:DISL:CATA:1,2009-02-01T22:30:00Z,30.3085,-88.1395,2.498,19.45,1111122 
DISL,ioos:station:DISL:CATA:1,2009-02-01T23:00:00Z,30.3085,-88.1395,2.473,19.9,1111122 
DISL,ioos:station:DISL:CATA:1,2009-02-01T23:30:00Z,30.3085,-88.1395,2.458,20.05,1111122 
DISL,ioos:station:DISL:CATA:1,2009-02-02T00:00:00Z,30.3085,-88.1395,2.426,19.76,1111122 
DISL,ioos:station:DISL:CATA:1,2009-02-02T00:30:00Z,30.3085,-88.1395,2.406,17.23,1111122 
DISL,ioos:station:DISL:CATA:1,2009-02-02T01:00:00Z,30.3085,-88.1395,2.395,14.98,1111122 
DISL,ioos:station:DISL:CATA:1,2009-02-02T01:30:00Z,30.3085,-88.1395,2.376,14.53,1111122 
DISL,ioos:station:DISL:CATA:1,2009-02-02T02:00:00Z,30.3085,-88.1395,2.351,14.44,1111122 
DISL,ioos:station:DISL:CATA:1,2009-02-02T02:30:00Z,30.3085,-88.1395,2.348,14.12,1111122 
DISL,ioos:station:DISL:CATA:1,2009-02-02T03:00:00Z,30.3085,-88.1395,2.341,13.77,1111122 
DISL,ioos:station:DISL:CATA:1,2009-02-02T03:30:00Z,30.3085,-88.1395,2.328,13.56,1111122 
DISL,ioos:station:DISL:CATA:1,2009-02-02T04:00:00Z,30.3085,-88.1395,2.322,13.4,1111122 
DISL,ioos:station:DISL:CATA:1,2009-02-02T04:30:00Z,30.3085,-88.1395,2.307,13.33,1111122 
DISL,ioos:station:DISL:CATA:1,2009-02-02T05:00:00Z,30.3085,-88.1395,2.293,13.22,1111122 
DISL,ioos:station:DISL:CATA:1,2009-02-02T05:30:00Z,30.3085,-88.1395,2.285,13.15,1111122 
DISL,ioos:station:DISL:CATA:1,2009-02-02T06:00:00Z,30.3085,-88.1395,2.266,13.09,1111122 
DISL,ioos:station:DISL:CATA:1,2009-02-02T06:30:00Z,30.3085,-88.1395,2.248,13.01,1111122 
DISL,ioos:station:DISL:CATA:1,2009-02-02T07:00:00Z,30.3085,-88.1395,2.26,12.96,1111122 
DISL,ioos:station:DISL:CATA:1,2009-02-02T07:30:00Z,30.3085,-88.1395,2.28,13.03,1111122 
DISL,ioos:station:DISL:CATA:1,2009-02-02T08:00:00Z,30.3085,-88.1395,2.264,13.09,1111122 
DISL,ioos:station:DISL:CATA:1,2009-02-02T08:30:00Z,30.3085,-88.1395,2.268,13.09,1111122 
DISL,ioos:station:DISL:CATA:1,2009-02-02T09:00:00Z,30.3085,-88.1395,2.296,13.16,1111122 
DISL,ioos:station:DISL:CATA:1,2009-02-02T09:30:00Z,30.3085,-88.1395,2.293,13.13,1111122 
DISL,ioos:station:DISL:CATA:1,2009-02-02T10:00:00Z,30.3085,-88.1395,2.304,13.14,1111122 
DISL,ioos:station:DISL:CATA:1,2009-02-02T10:30:00Z,30.3085,-88.1395,2.319,13.13,1111122 
DISL,ioos:station:DISL:CATA:1,2009-02-02T11:00:00Z,30.3085,-88.1395,2.343,13.2,1111122 
DISL,ioos:station:DISL:CATA:1,2009-02-02T11:30:00Z,30.3085,-88.1395,2.354,13.35,1111122 
DISL,ioos:station:DISL:CATA:1,2009-02-02T12:00:00Z,30.3085,-88.1395,2.37,13.39,1111122 
DISL,ioos:station:DISL:CATA:1,2009-02-02T12:30:00Z,30.3085,-88.1395,2.375,13.54,1111122 
DISL,ioos:station:DISL:CATA:1,2009-02-02T13:00:00Z,30.3085,-88.1395,2.388,13.6,1111122 
DISL,ioos:station:DISL:CATA:1,2009-02-02T13:30:00Z,30.3085,-88.1395,2.407,14.03,1111122 
DISL,ioos:station:DISL:CATA:1,2009-02-02T14:00:00Z,30.3085,-88.1395,2.425,14.32,1111122 
DISL,ioos:station:DISL:CATA:1,2009-02-02T14:30:00Z,30.3085,-88.1395,2.453,14.49,1111122 
DISL,ioos:station:DISL:CATA:1,2009-02-02T15:00:00Z,30.3085,-88.1395,2.46,14.6,1111122 
DISL,ioos:station:DISL:CATA:1,2009-02-02T15:30:00Z,30.3085,-88.1395,2.472,14.71,1111122 
DISL,ioos:station:DISL:CATA:1,2009-02-02T16:00:00Z,30.3085,-88.1395,2.505,14.8,1111122 
DISL,ioos:station:DISL:CATA:1,2009-02-02T16:30:00Z,30.3085,-88.1395,2.506,14.83,1111122 
DISL,ioos:station:DISL:CATA:1,2009-02-02T17:00:00Z,30.3085,-88.1395,2.537,14.92,1111122 
DISL,ioos:station:DISL:CATA:1,2009-02-02T17:30:00Z,30.3085,-88.1395,2.585,14.98,1111122 
DISL,ioos:station:DISL:CATA:1,2009-02-02T18:00:00Z,30.3085,-88.1395,2.531,14.77,1111122 
DISL,ioos:station:DISL:CATA:1,2009-02-02T18:30:00Z,30.3085,-88.1395,2.518,14.71,1111122 
DISL,ioos:station:DISL:CATA:1,2009-02-02T19:00:00Z,30.3085,-88.1395,2.506,15.1,1111122 
DISL,ioos:station:DISL:CATA:1,2009-02-02T19:30:00Z,30.3085,-88.1395,2.544,15.7,1111122 
DISL,ioos:station:DISL:CATA:1,2009-02-02T20:00:00Z,30.3085,-88.1395,2.559,14.92,1111122 
DISL,ioos:station:DISL:CATA:1,2009-02-02T20:30:00Z,30.3085,-88.1395,2.531,13.91,1111122 
DISL,ioos:station:DISL:CATA:1,2009-02-02T21:00:00Z,30.3085,-88.1395,2.529,13.74,1111122 
DISL,ioos:station:DISL:CATA:1,2009-02-02T21:30:00Z,30.3085,-88.1395,2.532,13.44,1111122 
DISL,ioos:station:DISL:CATA:1,2009-02-02T22:00:00Z,30.3085,-88.1395,2.518,13.47,1111122 
DISL,ioos:station:DISL:CATA:1,2009-02-02T22:30:00Z,30.3085,-88.1395,2.498,13.64,1111122 
DISL,ioos:station:DISL:CATA:1,2009-02-02T23:00:00Z,30.3085,-88.1395,2.496,13.7,1111122 
DISL,ioos:station:DISL:CATA:1,2009-02-02T23:30:00Z,30.3085,-88.1395,2.467,14.49,1111122 
DISL,ioos:station:DISL:CATA:1,2009-02-03T00:00:00Z,30.3085,-88.1395,2.383,14.38,1111122 
DISL,ioos:station:DISL:CATA:1,2009-02-03T00:30:00Z,30.3085,-88.1395,2.37,15.01,1111122 
DISL,ioos:station:DISL:CATA:1,2009-02-03T01:00:00Z,30.3085,-88.1395,2.325,15.02,1111122 
DISL,ioos:station:DISL:CATA:1,2009-02-03T01:30:00Z,30.3085,-88.1395,2.279,15.08,1111122 
DISL,ioos:station:DISL:CATA:1,2009-02-03T02:00:00Z,30.3085,-88.1395,2.259,14.92,1111122 
DISL,ioos:station:DISL:CATA:1,2009-02-03T02:30:00Z,30.3085,-88.1395,2.261,15.16,1111122 
DISL,ioos:station:DISL:CATA:1,2009-02-03T03:00:00Z,30.3085,-88.1395,2.237,15.12,1111122 
DISL,ioos:station:DISL:CATA:1,2009-02-03T03:30:00Z,30.3085,-88.1395,2.211,15.33,1111122 
DISL,ioos:station:DISL:CATA:1,2009-02-03T04:00:00Z,30.3085,-88.1395,2.197,15.63,1111122 
DISL,ioos:station:DISL:CATA:1,2009-02-03T04:30:00Z,30.3085,-88.1395,2.19,16.15,1111122 
DISL,ioos:station:DISL:CATA:1,2009-02-03T05:00:00Z,30.3085,-88.1395,2.168,16.45,1111122 
DISL,ioos:station:DISL:CATA:1,2009-02-03T05:30:00Z,30.3085,-88.1395,2.157,17.16,1111122 
DISL,ioos:station:DISL:CATA:1,2009-02-03T06:00:00Z,30.3085,-88.1395,2.146,17.64,1111122 
DISL,ioos:station:DISL:CATA:1,2009-02-03T06:30:00Z,30.3085,-88.1395,2.125,18.01,1111122 
DISL,ioos:station:DISL:CATA:1,2009-02-03T07:00:00Z,30.3085,-88.1395,2.099,18.22,1111122 
DISL,ioos:station:DISL:CATA:1,2009-02-03T07:30:00Z,30.3085,-88.1395,2.106,18.48,1111122 
DISL,ioos:station:DISL:CATA:1,2009-02-03T08:00:00Z,30.3085,-88.1395,2.136,18.61,1111122 
DISL,ioos:station:DISL:CATA:1,2009-02-03T08:30:00Z,30.3085,-88.1395,2.133,18.72,1111122 
DISL,ioos:station:DISL:CATA:1,2009-02-03T09:00:00Z,30.3085,-88.1395,2.123,18.5,1111122 
DISL,ioos:station:DISL:CATA:1,2009-02-03T09:30:00Z,30.3085,-88.1395,2.13,18.28,1111122 
DISL,ioos:station:DISL:CATA:1,2009-02-03T10:00:00Z,30.3085,-88.1395,2.121,18.07,1111122 
DISL,ioos:station:DISL:CATA:1,2009-02-03T10:30:00Z,30.3085,-88.1395,2.137,18.09,1111122 
DISL,ioos:station:DISL:CATA:1,2009-02-03T11:00:00Z,30.3085,-88.1395,2.16,17.95,1111122 
DISL,ioos:station:DISL:CATA:1,2009-02-03T11:30:00Z,30.3085,-88.1395,2.187,18.07,1111122 
DISL,ioos:station:DISL:CATA:1,2009-02-03T12:00:00Z,30.3085,-88.1395,2.212,17.92,1111122 
DISL,ioos:station:DISL:CATA:1,2009-02-03T12:30:00Z,30.3085,-88.1395,2.22,17.52,1111122 
DISL,ioos:station:DISL:CATA:1,2009-02-03T13:00:00Z,30.3085,-88.1395,2.252,16.03,1111122 
DISL,ioos:station:DISL:CATA:1,2009-02-03T13:30:00Z,30.3085,-88.1395,2.287,15.15,1111122 
DISL,ioos:station:DISL:CATA:1,2009-02-03T14:00:00Z,30.3085,-88.1395,2.322,14.95,1111122 
DISL,ioos:station:DISL:CATA:1,2009-02-03T14:30:00Z,30.3085,-88.1395,2.351,15.3,1111122 
DISL,ioos:station:DISL:CATA:1,2009-02-03T15:00:00Z,30.3085,-88.1395,2.369,14.84,1111122 
DISL,ioos:station:DISL:CATA:1,2009-02-03T15:30:00Z,30.3085,-88.1395,2.398,15.07,1111122 
DISL,ioos:station:DISL:CATA:1,2009-02-03T16:00:00Z,30.3085,-88.1395,2.426,15.3,1111122 
DISL,ioos:station:DISL:CATA:1,2009-02-03T16:30:00Z,30.3085,-88.1395,2.457,15.59,1111122 
DISL,ioos:station:DISL:CATA:1,2009-02-03T17:00:00Z,30.3085,-88.1395,2.476,16.25,1111122 
DISL,ioos:station:DISL:CATA:1,2009-02-03T17:30:00Z,30.3085,-88.1395,2.499,17.19,1111122 
DISL,ioos:station:DISL:CATA:1,2009-02-03T18:00:00Z,30.3085,-88.1395,2.524,18.09,1111122 
DISL,ioos:station:DISL:CATA:1,2009-02-03T18:30:00Z,30.3085,-88.1395,2.532,19.39,1111122 
DISL,ioos:station:DISL:CATA:1,2009-02-03T19:00:00Z,30.3085,-88.1395,2.542,20.04,1111122 
DISL,ioos:station:DISL:CATA:1,2009-02-03T19:30:00Z,30.3085,-88.1395,2.556,20.04,1111122 
DISL,ioos:station:DISL:CATA:1,2009-02-03T20:00:00Z,30.3085,-88.1395,2.554,20.4,1111122 
DISL,ioos:station:DISL:CATA:1,2009-02-03T20:30:00Z,30.3085,-88.1395,2.56,20.29,1111122 
DISL,ioos:station:DISL:CATA:1,2009-02-03T21:00:00Z,30.3085,-88.1395,2.576,20.42,1111122 
DISL,ioos:station:DISL:CATA:1,2009-02-03T21:30:00Z,30.3085,-88.1395,2.579,21.55,1111122 
DISL,ioos:station:DISL:CATA:1,2009-02-03T22:00:00Z,30.3085,-88.1395,2.58,21.49,1111122 
DISL,ioos:station:DISL:CATA:1,2009-02-03T22:30:00Z,30.3085,-88.1395,2.58,22.41,1111122 
DISL,ioos:station:DISL:CATA:1,2009-02-03T23:00:00Z,30.3085,-88.1395,2.575,22.34,1111122 
DISL,ioos:station:DISL:CATA:1,2009-02-03T23:30:00Z,30.3085,-88.1395,2.584,22.81,1111122 
DISL,ioos:station:DISL:CATA:1,2009-02-04T00:00:00Z,30.3085,-88.1395,2.583,23.11,1111122 
DISL,ioos:station:DISL:CATA:1,2009-02-04T00:30:00Z,30.3085,-88.1395,2.572,23.57,1111122 
DISL,ioos:station:DISL:CATA:1,2009-02-04T01:00:00Z,30.3085,-88.1395,2.565,23.86,1111122 
DISL,ioos:station:DISL:CATA:1,2009-02-04T01:30:00Z,30.3085,-88.1395,2.534,23.79,1111122 
DISL,ioos:station:DISL:CATA:1,2009-02-04T02:00:00Z,30.3085,-88.1395,2.515,23.66,1111122 
DISL,ioos:station:DISL:CATA:1,2009-02-04T02:30:00Z,30.3085,-88.1395,2.47,23.53,1111122 
DISL,ioos:station:DISL:CATA:1,2009-02-04T03:00:00Z,30.3085,-88.1395,2.421,24.04,1111122 
DISL,ioos:station:DISL:CATA:1,2009-02-04T03:30:00Z,30.3085,-88.1395,2.391,20.68,1111122 
DISL,ioos:station:DISL:CATA:1,2009-02-04T04:00:00Z,30.3085,-88.1395,2.366,19.07,1111122 
DISL,ioos:station:DISL:CATA:1,2009-02-04T04:30:00Z,30.3085,-88.1395,2.332,17.86,1111122 
DISL,ioos:station:DISL:CATA:1,2009-02-04T05:00:00Z,30.3085,-88.1395,2.269,17.93,1111122 
DISL,ioos:station:DISL:CATA:1,2009-02-04T05:30:00Z,30.3085,-88.1395,2.22,18.04,1111122 
DISL,ioos:station:DISL:CATA:1,2009-02-04T06:00:00Z,30.3085,-88.1395,2.177,17.89,1111122 
DISL,ioos:station:DISL:CATA:1,2009-02-04T06:30:00Z,30.3085,-88.1395,2.152,17.85,1111122 
DISL,ioos:station:DISL:CATA:1,2009-02-04T07:00:00Z,30.3085,-88.1395,2.122,18.2,1111122 
DISL,ioos:station:DISL:CATA:1,2009-02-04T07:30:00Z,30.3085,-88.1395,2.072,18.2,1111122 
DISL,ioos:station:DISL:CATA:1,2009-02-04T08:00:00Z,30.3085,-88.1395,2.052,18.35,1111122 
DISL,ioos:station:DISL:CATA:1,2009-02-04T08:30:00Z,30.3085,-88.1395,2.018,18.39,1111122 
DISL,ioos:station:DISL:CATA:1,2009-02-04T09:00:00Z,30.3085,-88.1395,1.998,18.42,1111122 
DISL,ioos:station:DISL:CATA:1,2009-02-04T09:30:00Z,30.3085,-88.1395,1.984,18.37,1111122 
DISL,ioos:station:DISL:CATA:1,2009-02-04T10:00:00Z,30.3085,-88.1395,1.971,18.33,1111122 
DISL,ioos:station:DISL:CATA:1,2009-02-04T10:30:00Z,30.3085,-88.1395,1.972,18.3,1111122 
DISL,ioos:station:DISL:CATA:1,2009-02-04T11:00:00Z,30.3085,-88.1395,1.977,18.26,1111122 
DISL,ioos:station:DISL:CATA:1,2009-02-04T11:30:00Z,30.3085,-88.1395,1.984,18.24,1111122 
DISL,ioos:station:DISL:CATA:1,2009-02-04T12:00:00Z,30.3085,-88.1395,1.996,18.22,1111122 
DISL,ioos:station:DISL:CATA:1,2009-02-04T12:30:00Z,30.3085,-88.1395,2.003,18.2,1111122 
DISL,ioos:station:DISL:CATA:1,2009-02-04T13:00:00Z,30.3085,-88.1395,2.029,18.19,1111122 
DISL,ioos:station:DISL:CATA:1,2009-02-04T13:30:00Z,30.3085,-88.1395,2.057,18.15,1111122 
DISL,ioos:station:DISL:CATA:1,2009-02-04T14:00:00Z,30.3085,-88.1395,2.074,18.14,1111122 
DISL,ioos:station:DISL:CATA:1,2009-02-04T14:30:00Z,30.3085,-88.1395,2.103,18.11,1111122 
DISL,ioos:station:DISL:CATA:1,2009-02-04T15:00:00Z,30.3085,-88.1395,2.139,18.08,1111122 
DISL,ioos:station:DISL:CATA:1,2009-02-04T15:30:00Z,30.3085,-88.1395,2.146,18.09,1111122 
DISL,ioos:station:DISL:CATA:1,2009-02-04T16:00:00Z,30.3085,-88.1395,2.177,17.86,1111122 
DISL,ioos:station:DISL:CATA:1,2009-02-04T16:30:00Z,30.3085,-88.1395,2.2,17.72,1111122 
DISL,ioos:station:DISL:CATA:1,2009-02-04T17:00:00Z,30.3085,-88.1395,2.233,17.57,1111122 
DISL,ioos:station:DISL:CATA:1,2009-02-04T17:30:00Z,30.3085,-88.1395,2.279,17.82,1111122 
DISL,ioos:station:DISL:CATA:1,2009-02-04T18:00:00Z,30.3085,-88.1395,2.313,18.19,1111122 
DISL,ioos:station:DISL:CATA:1,2009-02-04T18:30:00Z,30.3085,-88.1395,2.338,18.2,1111122 
DISL,ioos:station:DISL:CATA:1,2009-02-04T19:00:00Z,30.3085,-88.1395,2.373,18.41,1111122 
DISL,ioos:station:DISL:CATA:1,2009-02-04T19:30:00Z,30.3085,-88.1395,2.417,18.63,1111122 
DISL,ioos:station:DISL:CATA:1,2009-02-04T20:00:00Z,30.3085,-88.1395,2.435,18.96,1111122 
DISL,ioos:station:DISL:CATA:1,2009-02-04T20:30:00Z,30.3085,-88.1395,2.459,19.21,1111122 
DISL,ioos:station:DISL:CATA:1,2009-02-04T21:00:00Z,30.3085,-88.1395,2.478,19.52,1111122 
DISL,ioos:station:DISL:CATA:1,2009-02-04T21:30:00Z,30.3085,-88.1395,2.491,19.45,1111122 
DISL,ioos:station:DISL:CATA:1,2009-02-04T22:00:00Z,30.3085,-88.1395,2.508,19.37,1111122 
DISL,ioos:station:DISL:CATA:1,2009-02-04T22:30:00Z,30.3085,-88.1395,2.518,19.43,1111122 
DISL,ioos:station:DISL:CATA:1,2009-02-04T23:00:00Z,30.3085,-88.1395,2.527,19.58,1111122 
DISL,ioos:station:DISL:CATA:1,2009-02-04T23:30:00Z,30.3085,-88.1395,2.529,21.07,1111122 
DISL,ioos:station:DISL:CATA:1,2009-02-05T00:00:00Z,30.3085,-88.1395,2.529,21.23,1111122 
DISL,ioos:station:DISL:CATA:1,2009-02-05T00:30:00Z,30.3085,-88.1395,2.527,23.47,1111122 
DISL,ioos:station:DISL:CATA:1,2009-02-05T01:00:00Z,30.3085,-88.1395,2.516,23.71,1111122 
DISL,ioos:station:DISL:CATA:1,2009-02-05T01:30:00Z,30.3085,-88.1395,2.497,24.44,1111122 
DISL,ioos:station:DISL:CATA:1,2009-02-05T02:00:00Z,30.3085,-88.1395,2.477,24.75,1111122 
DISL,ioos:station:DISL:CATA:1,2009-02-05T02:30:00Z,30.3085,-88.1395,2.447,23.93,1111122 
DISL,ioos:station:DISL:CATA:1,2009-02-05T03:00:00Z,30.3085,-88.1395,2.415,20.57,1111122 
DISL,ioos:station:DISL:CATA:1,2009-02-05T03:30:00Z,30.3085,-88.1395,2.389,18.31,1111122 
DISL,ioos:station:DISL:CATA:1,2009-02-05T04:00:00Z,30.3085,-88.1395,2.351,17.99,1111122 
DISL,ioos:station:DISL:CATA:1,2009-02-05T04:30:00Z,30.3085,-88.1395,2.315,17.77,1111122 
DISL,ioos:station:DISL:CATA:1,2009-02-05T05:00:00Z,30.3085,-88.1395,2.278,17.83,1111122 
DISL,ioos:station:DISL:CATA:1,2009-02-05T05:30:00Z,30.3085,-88.1395,2.24,17.87,1111122 
DISL,ioos:station:DISL:CATA:1,2009-02-05T06:00:00Z,30.3085,-88.1395,2.201,17.81,1111122 
DISL,ioos:station:DISL:CATA:1,2009-02-05T06:30:00Z,30.3085,-88.1395,2.156,17.15,1111122 
DISL,ioos:station:DISL:CATA:1,2009-02-05T07:00:00Z,30.3085,-88.1395,2.116,17.09,1111122 
DISL,ioos:station:DISL:CATA:1,2009-02-05T07:30:00Z,30.3085,-88.1395,2.085,16.95,1111122 
DISL,ioos:station:DISL:CATA:1,2009-02-05T08:00:00Z,30.3085,-88.1395,2.052,16.76,1111122 
DISL,ioos:station:DISL:CATA:1,2009-02-05T08:30:00Z,30.3085,-88.1395,2.032,16.92,1111122 
DISL,ioos:station:DISL:CATA:1,2009-02-05T09:00:00Z,30.3085,-88.1395,2.008,17.21,1111122 
DISL,ioos:station:DISL:CATA:1,2009-02-05T09:30:00Z,30.3085,-88.1395,1.984,17.24,1111122 
DISL,ioos:station:DISL:CATA:1,2009-02-05T10:00:00Z,30.3085,-88.1395,1.956,17.13,1111122 
DISL,ioos:station:DISL:CATA:1,2009-02-05T10:30:00Z,30.3085,-88.1395,1.938,17.2,1111122 
DISL,ioos:station:DISL:CATA:1,2009-02-05T11:00:00Z,30.3085,-88.1395,1.92,16.75,1111122 
DISL,ioos:station:DISL:CATA:1,2009-02-05T11:30:00Z,30.3085,-88.1395,1.903,16.24,1111122 
DISL,ioos:station:DISL:CATA:1,2009-02-05T12:00:00Z,30.3085,-88.1395,1.898,15.82,1111122 
DISL,ioos:station:DISL:CATA:1,2009-02-05T12:30:00Z,30.3085,-88.1395,1.907,15.44,1111122 
DISL,ioos:station:DISL:CATA:1,2009-02-05T13:00:00Z,30.3085,-88.1395,1.923,15.15,1111122 
DISL,ioos:station:DISL:CATA:1,2009-02-05T13:30:00Z,30.3085,-88.1395,1.95,14.97,1111122 
DISL,ioos:station:DISL:CATA:1,2009-02-05T14:00:00Z,30.3085,-88.1395,1.981,14.99,1111122 
DISL,ioos:station:DISL:CATA:1,2009-02-05T14:30:00Z,30.3085,-88.1395,2.01,15.14,1111122 
DISL,ioos:station:DISL:CATA:1,2009-02-05T15:00:00Z,30.3085,-88.1395,2.047,15.49,1111122 
DISL,ioos:station:DISL:CATA:1,2009-02-05T15:30:00Z,30.3085,-88.1395,2.088,16.05,1111122 
DISL,ioos:station:DISL:CATA:1,2009-02-05T16:00:00Z,30.3085,-88.1395,2.115,15.91,1111122 
DISL,ioos:station:DISL:CATA:1,2009-02-05T16:30:00Z,30.3085,-88.1395,2.147,15.61,1111122 
DISL,ioos:station:DISL:CATA:1,2009-02-05T17:00:00Z,30.3085,-88.1395,2.173,15.55,1111122 
DISL,ioos:station:DISL:CATA:1,2009-02-05T17:30:00Z,30.3085,-88.1395,2.197,15.25,1111122 
DISL,ioos:station:DISL:CATA:1,2009-02-05T18:00:00Z,30.3085,-88.1395,2.232,15.34,1111122 
DISL,ioos:station:DISL:CATA:1,2009-02-05T18:30:00Z,30.3085,-88.1395,2.267,15.49,1111122 
DISL,ioos:station:DISL:CATA:1,2009-02-05T19:00:00Z,30.3085,-88.1395,2.304,15.8,1111122 
DISL,ioos:station:DISL:CATA:1,2009-02-05T19:30:00Z,30.3085,-88.1395,2.344,16.56,1111122 
DISL,ioos:station:DISL:CATA:1,2009-02-05T20:00:00Z,30.3085,-88.1395,2.383,17.7,1111122 
DISL,ioos:station:DISL:CATA:1,2009-02-05T20:30:00Z,30.3085,-88.1395,2.419,18.45,1111122 
DISL,ioos:station:DISL:CATA:1,2009-02-05T21:00:00Z,30.3085,-88.1395,2.459,19.09,1111122 
DISL,ioos:station:DISL:CATA:1,2009-02-05T21:30:00Z,30.3085,-88.1395,2.489,19.8,1111122 
DISL,ioos:station:DISL:CATA:1,2009-02-05T22:00:00Z,30.3085,-88.1395,2.523,20.46,1111122 
DISL,ioos:station:DISL:CATA:1,2009-02-05T22:30:00Z,30.3085,-88.1395,2.545,21.37,1111122 
DISL,ioos:station:DISL:CATA:1,2009-02-05T23:00:00Z,30.3085,-88.1395,2.577,22.23,1111122 
DISL,ioos:station:DISL:CATA:1,2009-02-05T23:30:00Z,30.3085,-88.1395,2.595,22.86,1111122 
DISL,ioos:station:DISL:CATA:1,2009-02-06T00:00:00Z,30.3085,-88.1395,2.603,22.98,1111122 
DISL,ioos:station:DISL:CATA:1,2009-02-06T00:30:00Z,30.3085,-88.1395,2.623,23.24,1111122 
DISL,ioos:station:DISL:CATA:1,2009-02-06T01:00:00Z,30.3085,-88.1395,2.64,23.48,1111122 
DISL,ioos:station:DISL:CATA:1,2009-02-06T01:30:00Z,30.3085,-88.1395,2.641,23.24,1111122 
DISL,ioos:station:DISL:CATA:1,2009-02-06T02:00:00Z,30.3085,-88.1395,2.65,23.63,1111122 
DISL,ioos:station:DISL:CATA:1,2009-02-06T02:30:00Z,30.3085,-88.1395,2.649,23.88,1111122 
DISL,ioos:station:DISL:CATA:1,2009-02-06T03:00:00Z,30.3085,-88.1395,2.644,24.0,1111122 
DISL,ioos:station:DISL:CATA:1,2009-02-06T03:30:00Z,30.3085,-88.1395,2.628,24.19,1111122 
DISL,ioos:station:DISL:CATA:1,2009-02-06T04:00:00Z,30.3085,-88.1395,2.594,24.49,1111122 
DISL,ioos:station:DISL:CATA:1,2009-02-06T04:30:00Z,30.3085,-88.1395,2.558,24.67,1111122 
DISL,ioos:station:DISL:CATA:1,2009-02-06T05:00:00Z,30.3085,-88.1395,2.519,24.3,1111122 
DISL,ioos:station:DISL:CATA:1,2009-02-06T05:30:00Z,30.3085,-88.1395,2.48,20.46,1111122 
DISL,ioos:station:DISL:CATA:1,2009-02-06T06:00:00Z,30.3085,-88.1395,2.431,20.13,1111122 
DISL,ioos:station:DISL:CATA:1,2009-02-06T06:30:00Z,30.3085,-88.1395,2.391,19.08,1111122 
DISL,ioos:station:DISL:CATA:1,2009-02-06T07:00:00Z,30.3085,-88.1395,2.347,18.0,1111122 
DISL,ioos:station:DISL:CATA:1,2009-02-06T07:30:00Z,30.3085,-88.1395,2.306,17.4,1111122 
DISL,ioos:station:DISL:CATA:1,2009-02-06T08:00:00Z,30.3085,-88.1395,2.27,16.98,1111122 
DISL,ioos:station:DISL:CATA:1,2009-02-06T08:30:00Z,30.3085,-88.1395,2.229,16.74,1111122 
DISL,ioos:station:DISL:CATA:1,2009-02-06T09:00:00Z,30.3085,-88.1395,2.205,16.25,1111122 
DISL,ioos:station:DISL:CATA:1,2009-02-06T09:30:00Z,30.3085,-88.1395,2.163,15.76,1111122 
DISL,ioos:station:DISL:CATA:1,2009-02-06T10:00:00Z,30.3085,-88.1395,2.13,15.56,1111122 
DISL,ioos:station:DISL:CATA:1,2009-02-06T10:30:00Z,30.3085,-88.1395,2.106,15.48,1111122 
DISL,ioos:station:DISL:CATA:1,2009-02-06T11:00:00Z,30.3085,-88.1395,2.087,15.31,1111122 
DISL,ioos:station:DISL:CATA:1,2009-02-06T11:30:00Z,30.3085,-88.1395,2.075,15.23,1111122 
DISL,ioos:station:DISL:CATA:1,2009-02-06T12:00:00Z,30.3085,-88.1395,2.047,15.15,1111122 
DISL,ioos:station:DISL:CATA:1,2009-02-06T12:30:00Z,30.3085,-88.1395,2.046,14.77,1111122 
DISL,ioos:station:DISL:CATA:1,2009-02-06T13:00:00Z,30.3085,-88.1395,2.051,14.56,1111122 
DISL,ioos:station:DISL:CATA:1,2009-02-06T13:30:00Z,30.3085,-88.1395,2.061,14.53,1111122 
DISL,ioos:station:DISL:CATA:1,2009-02-06T14:00:00Z,30.3085,-88.1395,2.08,14.42,1111122 